Location: Pittsburgh
(40.4410°N, 79.9960°W)
Time: 04:05:13
(UTC-04:00)

BlueWalker 3 - Pass Details

Date: 14 March 2026
Orbit: 449 x 457 km, 53.2° (Epoch: 17 April)

Event Time Altitude Azimuth Distance (km) Brightness Sun altitude
Exits shadow 04:59:09 14° 23° (NNE) 1,379 4.6 -29.4°
Drops below altitude 10° 05:00:44 10° 49° (NE) 1,598 5.3 -29.1°
Sets 05:03:42 0° 76° (ENE) 2,469 6.7 -28.6°
